FW1349 Weather Reports


Display with metric or nautical units.
time (UTC)temp
F
wind
direction
speed
MPH
gust
MPH
rain 1hr
in
rain 24hr
in
rain mn
in
humidity
%
barometer
mb
20260504050016 53 0.0 0.0 0.00 0.00 0.00 55
20260504045037 54 0.0 0.0 0.00 0.00 0.00 53
20260504044015 54 0.0 0.0 0.00 0.00 0.00 52
20260504043016 55 0.0 0.0 0.00 0.00 0.00 51
20260504042016 55 0.0 0.0 0.00 0.00 0.00 50
20260504041036 56 0.0 0.0 0.00 0.00 0.00 49
20260504040016 56 0.0 0.0 0.00 0.00 0.00 49
20260504035016 57 0.0 0.0 0.00 0.00 0.00 46
20260504034015 57 0.0 0.0 0.00 0.00 0.00 46
20260504033016 58 0.0 0.0 0.00 0.00 0.00 44
20260504032015 59 0.0 0.0 0.00 0.00 0.00 43
20260504031016 59 0.0 0.0 0.00 0.00 0.00 42
20260504030015 60 0.0 0.0 0.00 0.00 0.00 41
20260504025016 61 0.0 0.0 0.00 0.00 0.00 39
20260504024015 62 0.0 0.0 0.00 0.00 0.00 38
20260504023037 63 0.0 0.0 0.00 0.00 0.00 36
20260504022037 64 0.0 0.0 0.00 0.00 0.00 35
20260504021038 65 0.0 0.0 0.00 0.00 0.00 35
20260504020017 65 0.0 0.0 0.00 0.00 0.00 35
20260504015017 66 0.0 0.0 0.00 0.00 0.00 31
20260504014017 67 0.0 0.0 0.00 0.00 0.00 30
20260504013058 67 0.0 2.0 0.00 0.00 0.00 29
20260504012017 68 68 1.0 4.0 0.00 0.00 0.00 29
20260504011017 68 0.0 1.0 0.00 0.00 0.00 29
20260504010018 69 315 1.0 2.0 0.00 0.00 0.00 28
20260504005038 69 45 1.0 2.0 0.00 0.00 0.00 27
20260504004057 69 68 2.0 4.0 0.00 0.00 0.00 27
20260504003017 69 45 2.0 6.0 0.00 0.00 0.00 27
20260504002016 70 68 3.0 11.0 0.00 0.00 0.00 26
20260504001058 70 68 2.0 7.0 0.00 0.00 0.00 26
20260504000016 71 45 3.0 8.0 0.00 0.00 0.00 25
20260503235017 71 90 2.0 7.0 0.00 0.00 0.00 25
20260503234017 72 113 2.0 3.0 0.00 0.00 0.00 25
20260503233017 72 90 3.0 6.0 0.00 0.00 0.00 24
20260503232017 73 113 2.0 4.0 0.00 0.00 0.00 23
20260503231016 73 135 4.0 10.0 0.00 0.00 0.00 23
20260503230017 74 68 3.0 7.0 0.00 0.00 0.00 22
20260503225016 74 68 3.0 9.0 0.00 0.00 0.00 24
20260503224037 74 45 3.0 7.0 0.00 0.00 0.00 23
20260503223016 74 90 4.0 9.0 0.00 0.00 0.00 23
20260503222016 74 90 2.0 6.0 0.00 0.00 0.00 24
20260503221037 74 90 3.0 7.0 0.00 0.00 0.00 25
20260503220016 74 45 4.0 11.0 0.00 0.00 0.00 24
20260503215016 74 90 4.0 9.0 0.00 0.00 0.00 23
20260503214017 73 113 4.0 8.0 0.00 0.00 0.00 24
20260503213036 74 113 5.0 11.0 0.00 0.00 0.00 24
20260503212016 74 113 5.0 11.0 0.00 0.00 0.00 25
20260503211017 74 113 5.0 10.0 0.00 0.00 0.00 25
20260503210016 74 113 4.0 10.0 0.00 0.00 0.00 25
20260503205017 74 90 3.0 7.0 0.00 0.00 0.00 26
20260503204016 73 113 3.0 10.0 0.00 0.00 0.00 27
20260503203037 73 68 4.0 10.0 0.00 0.00 0.00 27
20260503202016 73 113 3.0 10.0 0.00 0.00 0.00 29
20260503201016 73 90 3.0 10.0 0.00 0.00 0.00 28
20260503200017 72 90 4.0 8.0 0.00 0.00 0.00 28
20260503195016 72 113 5.0 10.0 0.00 0.00 0.00 26
20260503194016 72 68 4.0 9.0 0.00 0.00 0.00 28
20260503193015 72 90 6.0 13.0 0.00 0.00 0.00 28
20260503192016 72 90 5.0 10.0 0.00 0.00 0.00 28
20260503191015 72 113 3.0 9.0 0.00 0.00 0.00 29
20260503190015 72 68 4.0 12.0 0.00 0.00 0.00 27
20260503185056 71 113 4.0 9.0 0.00 0.00 0.00 28
20260503184016 71 90 5.0 9.0 0.00 0.00 0.00 30
20260503183015 71 68 4.0 10.0 0.00 0.00 0.00 32
20260503182018 71 68 4.0 10.0 0.00 0.00 0.00 34
20260503181017 71 45 4.0 10.0 0.00 0.00 0.00 34
20260503180017 70 90 5.0 14.0 0.00 0.00 0.00 34
20260503175018 70 45 5.0 12.0 0.00 0.00 0.00 36
20260503174017 70 113 4.0 9.0 0.00 0.00 0.00 34
20260503173017 70 90 5.0 12.0 0.00 0.00 0.00 36
20260503172017 70 68 4.0 9.0 0.00 0.00 0.00 36
20260503171038 70 90 4.0 11.0 0.00 0.00 0.00 39
20260503131016 55 68 2.0 8.0 0.00 0.00 0.00 54
20260503081017 59 180 1.0 4.0 0.00 0.00 0.00 45
20260503072016 61 270 4.0 11.0 0.00 0.00 0.00 46
20260503071037 61 248 4.0 19.0 0.00 0.00 0.00 48